Hourly Data Report for January 02, 2006

TORONTO CITY
ONTARIO

43°40'00.000" N
79°24'00.000" W
112.50 m
6158355
71508
XTO

Download Data

Hourly Data (January 2006)
Hourly Data Report for January 2, 2006
TIME
LST
Temp Definition
°C
Dew Point Definition
°C
Rel Hum Definition
%
Precip. Amount Definition
mm

Wind Dir Definition
10's deg

Wind Spd Definition
km/h
Visibility Definition
km
Stn Press Definition
kPa
Hmdx Definition


Wind Chill Definition


Weather Definition


00:00 1.1 0.5 96   LegendMM LegendMM   100.50     LegendNANA
01:00 0.9 0.3 96   LegendMM LegendMM   100.49     LegendNANA
02:00 0.9 0.4 96   LegendMM LegendMM   100.54     LegendNANA
03:00 1.0 0.6 97   LegendMM LegendMM   100.59     LegendNANA
04:00 1.4 1.1 98   LegendMM LegendMM   100.56     LegendNANA
05:00 1.6 1.3 98   LegendMM LegendMM   100.48     LegendNANA
06:00 1.8 1.5 98   LegendMM LegendMM   100.43     LegendNANA
07:00 1.5 1.3 99   LegendMM LegendMM   100.40     LegendNANA
08:00 1.7 1.6 99   LegendMM LegendMM   100.42     LegendNANA
09:00 2.1 1.9 99   LegendMM LegendMM   100.43     LegendNANA
10:00 2.3 2.0 98   LegendMM LegendMM   100.41     LegendNANA
11:00 2.6 2.2 97   LegendMM LegendMM   100.37     LegendNANA
12:00 2.8 2.3 97   LegendMM LegendMM   100.28     LegendNANA
13:00 2.8 2.3 97   LegendMM LegendMM   100.14     LegendNANA
14:00 2.5 2.0 96   LegendMM LegendMM   100.08     LegendNANA
15:00 2.6 1.9 95   LegendMM LegendMM   99.99     LegendNANA
16:00 2.7 1.5 92   LegendMM LegendMM   100.06     LegendNANA
17:00 2.6 1.4 92   LegendMM LegendMM   100.02     LegendNANA
18:00 2.4 1.0 90   LegendMM LegendMM   100.03     LegendNANA
19:00 2.6 1.1 90   LegendMM LegendMM   99.95     LegendNANA
20:00 2.7 1.3 90   LegendMM LegendMM   99.94     LegendNANA
21:00 2.8 1.8 93   LegendMM LegendMM   99.88     LegendNANA
22:00 2.7 1.8 94   LegendMM LegendMM   99.86     LegendNANA
23:00 2.8 2.1 95   LegendMM LegendMM   99.85     LegendNANA

Notes on Data Quality.

Legend

  • E = Estimated
  • M = Missing
  • NA = Not Available*
  • [empty] = Indicates an unobserved value
Date modified: